Regional Weather Roundup
Issued by NWS

Home | Current Version | Previous Version | Graphics & Text | Print | Product List | Glossary On
Versions: 1 2 3 4 5 6 7 8 9 10 11 12 13 14 15 16 17 18 19 20 21 22 23 24 25 26 27 28 29 30 31 32 33 34 35 36 37 38 39 40 41 42 43 44 45 46 47 48 49 50
443
ASUS45 KPSR 251010
RWRAZ

ARIZONA HOURLY REGIONAL WEATHER ROUNDUP
NATIONAL WEATHER SERVICE PHOENIX AZ
300 AM MST TUE APR 25 2017

NOTE: FAIR INDICATES FEW OR NO CLOUDS BELOW 12,000 FEET WITH NO
SIGNIFICANT WEATHER AND/OR OBSTRUCTIONS TO VISIBILITY.

AZZ001>003-036-251100-
NORTHWEST ARIZONA

CITY           SKY/WX    TMP DP  RH WIND       PRES   REMARKS
BULLHEAD CITY  MOCLDY    70  34  26 CALM      29.59S
KINGMAN        MOCLDY    56  32  40 SW8       29.68S
$$

AZZ004>008-015-016-018-251100-
NORTH CENTRAL ARIZONA

CITY           SKY/WX    TMP DP  RH WIND       PRES   REMARKS
GRAND CANYON   LGT RAIN  49  30  48 VRB5      29.77R
WILLIAMS       CLOUDY    50  32  50 SW16G29   29.76S
PRESCOTT       MOCLDY    56  32  40 SW10      29.73S
FLAGSTAFF      MOCLDY    48  26  42 SW14G20   29.75F
PAYSON         CLOUDY    57  36  44 SW10G17   29.77F
PAGE           CLOUDY    61  27  27 NW8       29.64R
$$

AZZ009>014-017-251100-
NORTHEAST ARIZONA

CITY           SKY/WX    TMP DP  RH WIND       PRES   REMARKS
WINSLOW        CLOUDY    58  28  32 SW9       29.68F
SAINT JOHNS    CLOUDY    57  21  24 SW14G22   29.71F
WINDOW ROCK    CLOUDY    51  30  44 W16G25    29.76S
SHOW LOW       CLOUDY    50  19  29 SW12      29.78F
$$

AZZ540-542>544-546-548-251100-
GREATER PHOENIX AREA

CITY           SKY/WX    TMP DP  RH WIND       PRES   REMARKS
PHOENIX        CLOUDY    75  35  23 W10       29.59F
BUCKEYE        PTCLDY    68  43  40 SW9G21    29.61S
LUKE AFB       MOCLDY    71  44  36 S14       29.59F
DEER VALLEY    CLOUDY    71  38  29 SW8       29.60F
SCOTTSDALE     CLOUDY    74  36  25 SW14G21   29.61F
MESA-GATEWAY   MOCLDY    72  30  21 S6        29.64S
$$

AZZ539-553-251100-
SOUTHWEST MARICOPA COUNTY AND PINAL COUNTY

CITY           SKY/WX    TMP DP  RH WIND       PRES   REMARKS
CASA GRANDE    MOCLDY    68  32  26 SW7       29.65F
GILA BEND      FAIR      70  48  44 SW12      29.60F
$$

AZZ503-504-507>509-251100-
SOUTHEAST ARIZONA

CITY           SKY/WX    TMP DP  RH WIND       PRES   REMARKS
TUCSON         PTCLDY    72  20  14 S18G26    29.73S
DAVIS-MONTHAN  PTCLDY    69  19  14 SW15      29.71F
NOGALES        PTCLDY    60  22  23 S7        29.80F
SIERRA VISTA   MOCLDY    64  14  14 S10G24    29.81S
DOUGLAS        MOCLDY    61  18  18 S7        29.80F
SAFFORD        MOCLDY    68  18  14 NW12      29.67F
$$

AZZ532-251100-
SOUTHWEST ARIZONA

CITY           SKY/WX    TMP DP  RH WIND       PRES   REMARKS
YUMA           CLOUDY    69  45  41 NW24G33   29.63F
$$

CAZ041-043-047-048-061-525>527-560>570-251100-
SOUTHERN CALIFORNIA

CITY           SKY/WX    TMP DP  RH WIND       PRES   REMARKS
DOWNTOWN L.A.  CLEAR     61  53  75 CALM      29.84F
L.A. AIRPORT   PTCLDY    60  55  83 W12       29.85F
SAN DIEGO      MOCLDY    62  54  74 SW7       29.90F
BURBANK        PTCLDY    64  39  39 N16G23    29.84F
ONTARIO        MOCLDY    55  51  86 W9        29.84F
RIVERSIDE      PTCLDY    56  52  86 NE3       29.85F
PALM SPRINGS   PTCLDY    71  41  33 VRB5      29.64F
EL CENTRO NAS    N/A     68  43  40 W9        29.68R
IMPERIAL       PTCLDY    69  46  43 NW21G30   29.64F
BLYTHE         MOCLDY    72  41  32 MISG      29.61F
NEEDLES        PTCLDY    71  38  29 NW15G22   29.58F
$$

NVZ020-UTZ003-251100-
SOUTHERN NEVADA-UTAH

CITY           SKY/WX    TMP DP  RH WIND       PRES   REMARKS
LAS VEGAS      MOCLDY    70  14  11 N22G37    29.65R
SALT LAKE CITY LGT RAIN  42  40  92 SW7       29.74S
$$

NMZ009-TXZ055-251100-
NEW MEXICO-WEST TEXAS

CITY           SKY/WX    TMP DP  RH WIND       PRES   REMARKS
ALBUQUERQUE    CLOUDY    62  21  20 S13       29.69F
EL PASO        CLOUDY    72  16  12 SW12G28   29.71S
$$


........................KEY........................
SKY/WX - SKY CONDITION/WEATHER
TMP    - TEMPERATURE IN FAHRENHEIT
DP     - DEW POINT IN FAHRENHEIT
RH     - RELATIVE HUMIDITY IN PERCENT
WIND   - DIRECTION AND SPEED IN MILES PER HOUR (MPH)
VRB    - VARIABLE WIND DIRECTION
PRES   - MEAN SEA LEVEL PRESSURE IN INCHES OF MERCURY
         F - FALLING PRESSURE   R - RISING PRESSURE
         S - STEADY PRESSURE
VSB    - VISIBILITY IN MILES
HX     - HEAT INDEX IN FAHRENHEIT
WCI    - WIND CHILL INDEX IN FAHRENHEIT
TC     - TEMPERATURE IN CELSIUS WHICH IS ALSO KNOWN AS
         TEMPERATURE IN CENTIGRADE
AFB    - AIR FORCE BASE
         LUKE AFB IS LUKE AIR FORCE BASE
         DAVIS-MONTHAN IS DAVIS-MONTHAN AIR FORCE BASE
NAS    - NAVAL AIR STATION
         EL CENTRO NAS IS EL CENTRO NAVAL AIR STATION
N/A    - NOT AVAILABLE





USA.gov is the U.S. government's official web portal to all federal, state and local government web resources and services.